This demonstration page uses our WeatherBlox Daily Observations layout. Learn more.

Left ArrowRight Arrow

-33.8178, 151.00348

Hourly Observations for January 6, 2023

Temp ( °F °C ) Dew Point ( °F °C ) Humidity (%) Winds ( mph kmh ) Pressure ( in mb ) Visibility ( mi km ) Precip ( " mm )
12:00 am 00:00 Mostly Cloudy with Showers Nearby 63 17 57 14 82 82 SSW 20 31 29.88 1012 6 10 0.00 0.00
12:30 am 00:30 Mostly Cloudy with Showers Nearby 63 17 57 14 82 82 SSW 21 33 29.88 1012 6 10 0.00 0.00
1:00 am 01:00 Mostly Cloudy with Showers 63 17 57 14 82 82 SSW 17 28 29.88 1012 6 10 0.00 0.00
1:30 am 01:30 Mostly Cloudy with Showers 63 17 55 13 77 77 SW 18 30 29.85 1011 6 10 0.00 0.00
2:00 am 02:00 Mostly Cloudy with Showers 63 17 55 13 77 77 SSW 17 28 29.85 1011 6 10 0.00 0.00
2:30 am 02:30 Mostly Cloudy 63 17 55 13 77 77 SW 18 30 29.85 1011 6 10 0.00 0.00
2:35 am 02:35 Mostly Cloudy 63 17 55 13 77 77 SW 17 28 29.85 1011 6 10 0.00 0.00
3:00 am 03:00 Mostly Cloudy 63 17 57 14 82 82 SSW 23 37 29.85 1011 6 10 0.00 0.00
3:30 am 03:30 Mostly Cloudy 63 17 57 14 82 82 SSW 26 43 29.82 1010 6 10 0.00 0.00
4:00 am 04:00 Mostly Cloudy 63 17 57 14 82 82 SSW 24 39 29.82 1010 6 10 0.00 0.00
4:30 am 04:30 Mostly Cloudy 63 17 57 14 82 82 SSW 22 35 29.82 1010 6 10 0.00 0.00
5:35 am 05:35 Mostly Cloudy with Light Showers 61 16 57 14 88 88 SW 18 30 29.85 1011 6 10 0.00 0.00
6:00 am 06:00 Mostly Cloudy with Showers Nearby 61 16 55 13 82 82 WSW 13 20 29.82 1010 6 10 0.00 0.00
6:30 am 06:30 Mostly Cloudy with Heavy Showers 59 15 55 13 88 88 W 12 19 29.82 1010 4 6 0.00 0.00
6:45 am 06:45 Mostly Cloudy with Light Showers 59 15 55 13 88 88 W 10 17 29.82 1010 6 10 0.00 0.00
7:00 am 07:00 Mostly Cloudy with Showers Nearby 59 15 57 14 94 94 W 12 19 29.85 1011 6 10 0.00 0.00
7:30 am 07:30 Mostly Cloudy with Light Showers 61 16 57 14 88 88 SW 16 26 29.85 1011 6 10 0.00 0.00
7:50 am 07:50 Mostly Cloudy 61 16 59 15 94 94 SW 20 31 29.85 1011 6 10 0.00 0.00
8:00 am 08:00 Mostly Cloudy 63 17 59 15 88 88 SW 23 37 29.85 1011 6 10 0.00 0.00
8:30 am 08:30 Mostly Cloudy 64 18 61 16 88 88 SSW 28 44 29.82 1010 6 10 0.00 0.00
8:43 am 08:43 Mostly Cloudy with Showers Nearby 64 18 59 15 83 83 SSW 25 41 29.85 1011 6 10 0.00 0.00
9:07 am 09:07 Mostly Cloudy with Showers 63 17 59 15 88 88 SSW 26 43 29.85 1011 4 6 0.00 0.00
9:24 am 09:24 Mostly Cloudy with Heavy Showers 63 17 61 16 94 94 SSW 29 46 29.85 1011 2 3 0.00 0.00
9:30 am 09:30 Windy with Rain Showers Likely 63 17 61 16 94 94 SSW 26 43 29.85 1011 2 4 0.00 0.00
10:00 am 10:00 Mostly Cloudy with Showers 63 17 61 16 94 94 SSW 23 37 29.85 1011 2 4 0.00 0.00
10:30 am 10:30 Cloudy with Showers 66 19 64 18 94 94 S 25 41 29.82 1010 2 3 0.00 0.00
11:06 am 11:06 Windy with Rain Showers Likely 66 19 64 18 94 94 SSE 29 46 29.85 1011 4 7 0.00 0.00
11:13 am 11:13 Cloudy with Showers 66 19 64 18 94 94 SSE 28 44 29.85 1011 3 5 0.00 0.00
11:46 am 11:46 Mostly Cloudy with Showers 66 19 64 18 94 94 SSE 29 46 29.85 1011 2 4 0.00 0.00
12:00 pm 12:00 Mostly Cloudy with Showers 66 19 64 18 94 94 SSE 29 46 29.85 1011 3 5 0.00 0.00
12:20 pm 12:20 Mostly Cloudy with Showers 64 18 64 18 100 100 S 32 52 29.85 1011 2 3 0.00 0.00
12:30 pm 12:30 Mostly Cloudy with Showers 66 19 64 18 94 94 SSE 32 52 29.85 1011 2 3 0.00 0.00
12:43 pm 12:43 Mostly Cloudy with Heavy Showers 64 18 64 18 100 100 S 31 50 29.85 1011 1 2 0.00 0.00
12:50 pm 12:50 Mostly Cloudy with Heavy Showers 64 18 63 17 94 94 S 31 50 29.85 1011 1 1 0.00 0.00
1:00 pm 13:00 Mostly Cloudy with Showers 66 19 64 18 94 94 S 30 48 29.85 1011 4 6 0.00 0.00
1:07 pm 13:07 Mostly Cloudy with Showers 66 19 64 18 94 94 S 31 50 29.85 1011 4 7 0.00 0.00
1:30 pm 13:30 Mostly Cloudy with Heavy Showers 64 18 64 18 100 100 SSE 30 48 29.88 1012 2 4 0.00 0.00
2:00 pm 14:00 Mostly Cloudy with Showers 64 18 64 18 100 100 SSE 28 44 29.88 1012 2 3 0.00 0.00
2:39 pm 14:39 Mostly Cloudy with Heavy Showers 64 18 63 17 94 94 SSE 29 46 29.88 1012 1 1 0.00 0.00
2:55 pm 14:55 Mostly Cloudy with Showers 64 18 64 18 100 100 SSE 26 43 29.88 1012 2 4 0.00 0.00
3:00 pm 15:00 Windy with Rain Showers Likely 64 18 64 18 100 100 SSE 25 41 29.88 1012 5 8 0.00 0.00
3:12 pm 15:12 Windy with Rain Showers Likely 64 18 64 18 100 100 SSE 28 44 29.88 1012 6 9 0.00 0.00
3:30 pm 15:30 Windy with Rain Showers Likely 66 19 64 18 94 94 S 26 43 29.88 1012 6 9 0.00 0.00
4:00 pm 16:00 Windy with Rain Showers Likely 66 19 64 18 94 94 S 29 46 29.88 1012 5 8 0.00 0.00
4:30 pm 16:30 Windy with Rain Showers Likely 64 18 63 17 94 94 S 28 44 29.88 1012 5 8 0.00 0.00
4:37 pm 16:37 Windy with Rain Showers Likely 66 19 64 18 94 94 S 26 43 29.88 1012 2 4 0.00 0.00
5:00 pm 17:00 Windy with Rain Showers Likely 64 18 63 17 94 94 S 28 44 29.88 1012 5 8 0.00 0.00
5:07 pm 17:07 Windy with Rain Showers Likely 64 18 63 17 94 94 S 25 41 29.88 1012 4 7 0.00 0.00
5:19 pm 17:19 Windy with Rain Showers Likely 64 18 64 18 100 100 S 28 44 29.88 1012 4 6 0.00 0.00
5:30 pm 17:30 Windy with Rain Showers Likely 64 18 63 17 94 94 S 28 44 29.88 1012 5 8 0.00 0.00
5:38 pm 17:38 Windy with Rain Showers Likely 63 17 61 16 94 94 S 29 46 29.88 1012 4 6 0.00 0.00
6:00 pm 18:00 Mostly Cloudy with Heavy Showers 63 17 63 17 100 100 S 29 46 29.91 1013 1 2 0.00 0.00
6:30 pm 18:30 Mostly Cloudy with Showers 63 17 61 16 94 94 SSW 24 39 29.91 1013 2 4 0.00 0.00
6:49 pm 18:49 Mostly Cloudy with Showers 64 18 63 17 94 94 S 23 37 29.91 1013 4 6 0.00 0.00
7:00 pm 19:00 Mostly Cloudy with Showers 64 18 63 17 94 94 S 25 41 29.91 1013 3 5 0.00 0.00
7:24 pm 19:24 Windy with Rain Showers Likely 64 18 63 17 94 94 S 24 39 29.91 1013 5 8 0.00 0.00
7:30 pm 19:30 Windy with Rain Showers Likely 64 18 63 17 94 94 S 25 41 29.91 1013 5 8 0.00 0.00
8:00 pm 20:00 Windy with Rain Showers Likely 64 18 63 17 94 94 S 25 41 29.94 1014 4 6 0.00 0.00
8:21 pm 20:21 Windy with Rain Showers Likely 64 18 63 17 94 94 S 24 39 29.94 1014 6 10 0.00 0.00
8:30 pm 20:30 Windy with Rain Showers Likely 64 18 63 17 94 94 S 25 41 29.94 1014 6 10 0.00 0.00
9:00 pm 21:00 Mostly Cloudy with Showers Nearby 64 18 63 17 94 94 S 22 35 29.94 1014 6 10 0.00 0.00
9:30 pm 21:30 Windy with Rain Showers Likely 66 19 63 17 88 88 S 24 39 29.94 1014 6 10 0.00 0.00
9:42 pm 21:42 Windy with Rain Showers Likely 66 19 63 17 88 88 S 23 37 29.94 1014 6 10 0.00 0.00
10:00 pm 22:00 Mostly Cloudy with Showers Nearby 66 19 61 16 83 83 S 25 41 29.94 1014 6 10 0.00 0.00
10:15 pm 22:15 Mostly Cloudy with Showers Nearby 66 19 63 17 88 88 S 24 39 29.94 1014 6 10 0.00 0.00
10:30 pm 22:30 Mostly Cloudy with Showers Nearby 66 19 61 16 83 83 S 24 39 29.94 1014 6 10 0.00 0.00
11:00 pm 23:00 Windy with Rain Showers Likely 66 19 63 17 88 88 S 25 41 29.94 1014 6 10 0.00 0.00
11:30 pm 23:30 Windy with Rain Showers Likely 64 18 63 17 94 94 S 23 37 29.94 1014 6 10 0.00 0.00
11:55 pm 23:55 Mostly Cloudy with Showers 64 18 63 17 94 94 SSW 21 33 29.94 1014 3 5 0.00 0.00

Powered by AerisWeather